EW1196 Weather Reports


Display with metric or nautical units.
time (UTC)temp
F
wind
direction
speed
MPH
gust
MPH
rain 1hr
in
rain 24hr
in
rain mn
in
humidity
%
barometer
mb
20260509034005 54 332 0.0 1.0 0.05 0.05 0.05 85 1009.0
20260509033504 54 332 0.0 1.0 0.04 0.04 0.04 85 1009.0
20260509033004 55 332 0.0 2.0 0.04 0.04 0.04 85 1009.0
20260509032004 55 332 1.0 3.0 0.04 0.04 0.04 85 1009.0
20260509030505 55 332 1.0 1.0 0.03 0.03 0.03 85 1009.0
20260509030004 55 332 0.0 1.0 0.02 0.02 0.02 85 1009.1
20260509025505 55 332 1.0 2.0 0.02 0.02 0.02 85 1009.2
20260509025004 55 332 0.0 2.0 0.01 0.01 0.01 85 1009.2
20260509024504 55 332 0.0 1.0 0.00 0.00 0.00 85 1009.2
20260509023504 55 332 0.0 3.0 0.00 0.00 0.00 84 1009.3
20260509022004 55 329 1.0 3.0 0.00 0.00 0.00 84 1009.5
20260509021504 55 330 2.0 3.0 0.00 0.00 0.00 84 1009.5
20260509021004 55 321 1.0 3.0 0.00 0.00 0.00 83 1009.4
20260509020504 55 334 1.0 3.0 0.00 0.00 0.00 83 1009.4
20260509020004 55 326 2.0 3.0 0.00 0.00 0.00 83 1009.4
20260509015004 56 0 2.0 8.0 0.00 0.00 0.00 82 1009.4
20260509014505 56 316 3.0 7.0 0.00 0.00 0.00 82 1009.3
20260509014005 56 345 3.0 5.0 0.00 0.00 0.00 81 1009.3
20260509013504 56 304 2.0 8.0 0.00 0.00 0.00 81 1009.2
20260509013004 56 343 2.0 5.0 0.00 0.00 0.00 81 1009.1
20260509012504 56 355 1.0 2.0 0.00 0.00 0.00 80 1008.9
20260509011504 57 355 1.0 3.0 0.00 0.00 0.00 80 1008.4
20260509011004 57 328 2.0 7.0 0.00 0.00 0.00 79 1008.4
20260509010504 57 327 4.0 8.0 0.00 0.00 0.00 79 1008.4
20260509010005 57 354 2.0 5.0 0.00 0.00 0.00 79 1008.4
20260509005504 58 338 1.0 2.0 0.00 0.00 0.00 79 1008.4
20260509004504 59 338 0.0 2.0 0.00 0.00 0.00 77 1008.3
20260509004004 59 338 1.0 2.0 0.00 0.00 0.00 76 1008.2
20260509003504 59 338 0.0 1.0 0.00 0.00 0.00 75 1008.4
20260509003004 59 338 0.0 1.0 0.00 0.00 0.00 75 1008.5
20260509002504 59 338 0.0 1.0 0.00 0.00 0.00 74 1008.6
20260509002004 59 338 1.0 3.0 0.00 0.00 0.00 74 1008.6
20260509001504 59 320 2.0 5.0 0.00 0.00 0.00 74 1008.4
20260509001004 59 338 3.0 8.0 0.00 0.00 0.00 74 1008.3
20260509000504 59 352 6.0 9.0 0.00 0.00 0.00 74 1008.3
20260509000004 59 231 0.0 1.0 0.00 0.00 0.00 76 1008.3
20260508235504 60 229 0.0 0.0 0.00 0.00 0.00 76 1008.3
20260508235005 60 229 0.0 0.0 0.00 0.00 0.00 76 1008.4
20260508234005 60 229 0.0 0.0 0.00 0.00 0.00 77 1008.3
20260508233504 61 229 0.0 0.0 0.00 0.00 0.00 75 1008.2
20260508233004 61 229 0.0 0.0 0.00 0.00 0.00 75 1008.1
20260508232004 61 229 0.0 0.0 0.00 0.00 0.00 77 1008.0
20260508231004 61 229 0.0 0.0 0.00 0.00 0.00 74 1008.0
20260508230004 61 229 0.0 0.0 0.00 0.00 0.00 76 1008.0
20260508225504 61 229 0.0 0.0 0.00 0.00 0.00 75 1008.1
20260508225004 61 229 0.0 0.0 0.00 0.00 0.00 72 1008.1
20260508224505 61 229 0.0 0.0 0.00 0.00 0.00 71 1008.1
20260508224004 62 229 0.0 0.0 0.00 0.00 0.00 71 1008.1
20260508223004 63 229 1.0 1.0 0.00 0.00 0.00 66 1008.0
20260508222004 64 229 0.0 2.0 0.00 0.00 0.00 63 1007.9
20260508221504 64 229 0.0 1.0 0.00 0.00 0.00 61 1008.0
20260508220505 65 229 0.0 1.0 0.00 0.00 0.00 57 1008.1
20260508220004 65 229 1.0 2.0 0.00 0.00 0.00 56 1008.0
20260508214504 65 231 3.0 8.0 0.00 0.00 0.00 52 1007.9
20260508214004 65 188 2.0 3.0 0.00 0.00 0.00 55 1008.0
20260508213504 65 206 1.0 3.0 0.00 0.00 0.00 54 1008.0
20260508213005 65 206 1.0 2.0 0.00 0.00 0.00 52 1008.0
20260508212504 65 206 1.0 3.0 0.00 0.00 0.00 53 1008.0
20260508212004 65 206 2.0 7.0 0.00 0.00 0.00 51 1007.9
20260508211504 65 204 3.0 7.0 0.00 0.00 0.00 52 1008.0
20260508211004 65 229 2.0 6.0 0.00 0.00 0.00 52 1008.2
20260508210504 65 158 2.0 6.0 0.00 0.00 0.00 52 1008.1
20260508210004 65 207 2.0 5.0 0.00 0.00 0.00 52 1008.1
20260508205504 65 169 1.0 7.0 0.00 0.00 0.00 53 1008.2
20260508205005 65 198 5.0 9.0 0.00 0.00 0.00 50 1008.3
20260508204504 65 223 2.0 5.0 0.00 0.00 0.00 51 1008.4
20260508204005 65 223 3.0 6.0 0.00 0.00 0.00 51 1008.5
20260508203004 65 190 3.0 8.0 0.00 0.00 0.00 51 1008.6
20260508202504 65 214 2.0 7.0 0.00 0.00 0.00 52 1008.8
20260508202004 65 272 3.0 9.0 0.00 0.00 0.00 52 1009.0
20260508201504 65 178 3.0 9.0 0.00 0.00 0.00 51 1009.1
20260508200504 65 211 5.0 8.0 0.00 0.00 0.00 51 1009.2
20260508200004 65 217 4.0 10.0 0.00 0.00 0.00 51 1009.2
20260508195504 65 215 5.0 9.0 0.00 0.00 0.00 53 1009.4
20260508195004 65 195 2.0 7.0 0.00 0.00 0.00 52 1009.4
20260508194504 65 219 3.0 9.0 0.00 0.00 0.00 50 1009.4
20260508194004 65 221 5.0 12.0 0.00 0.00 0.00 50 1009.5
20260508193504 65 255 4.0 9.0 0.00 0.00 0.00 50 1009.5
20260508193004 65 239 3.0 13.0 0.00 0.00 0.00 51 1009.6
20260508192504 66 232 3.0 7.0 0.00 0.00 0.00 49 1009.6
20260508192004 66 199 4.0 12.0 0.00 0.00 0.00 50 1009.8
20260508191504 66 240 3.0 9.0 0.00 0.00 0.00 50 1009.8
20260508191004 66 243 6.0 10.0 0.00 0.00 0.00 46 1009.7
20260508190004 66 220 3.0 10.0 0.00 0.00 0.00 48 1009.7
20260508185504 66 225 6.0 13.0 0.00 0.00 0.00 48 1009.8
20260508185004 66 224 7.0 15.0 0.00 0.00 0.00 50 1009.9
20260508184504 66 207 3.0 13.0 0.00 0.00 0.00 50 1009.9
20260508184004 66 210 5.0 13.0 0.00 0.00 0.00 50 1009.9
20260508183504 66 238 3.0 12.0 0.00 0.00 0.00 50 1009.9
20260508183004 66 183 6.0 15.0 0.00 0.00 0.00 50 1009.9
20260508182504 66 155 3.0 8.0 0.00 0.00 0.00 51 1010.0
20260508181504 67 258 5.0 10.0 0.00 0.00 0.00 52 1010.3
20260508181004 66 162 2.0 6.0 0.00 0.00 0.00 54 1010.4
20260508180504 66 220 5.0 9.0 0.00 0.00 0.00 53 1010.4
20260508180004 65 154 4.0 12.0 0.00 0.00 0.00 54 1010.6
20260508175504 65 215 3.0 10.0 0.00 0.00 0.00 56 1010.7
20260508175004 65 199 5.0 12.0 0.00 0.00 0.00 54 1010.8
20260508174505 64 189 4.0 12.0 0.00 0.00 0.00 53 1011.0
20260508174004 64 198 4.0 10.0 0.00 0.00 0.00 55 1011.2
20260508173504 64 223 6.0 15.0 0.00 0.00 0.00 53 1011.3
20260508173004 64 161 5.0 10.0 0.00 0.00 0.00 53 1011.4
20260508172505 65 228 5.0 12.0 0.00 0.00 0.00 54 1011.4
20260508172004 64 228 3.0 6.0 0.00 0.00 0.00 55 1011.5
20260508171504 64 217 4.0 12.0 0.00 0.00 0.00 54 1011.5
20260508171004 63 188 5.0 12.0 0.00 0.00 0.00 55 1011.6
20260508170504 63 208 5.0 10.0 0.00 0.00 0.00 55 1011.7
20260508170004 64 218 5.0 12.0 0.00 0.00 0.00 55 1011.8
20260508165504 63 219 4.0 12.0 0.00 0.00 0.00 55 1011.9
20260508165005 63 228 6.0 12.0 0.00 0.00 0.00 55 1011.9
20260508164504 63 222 5.0 13.0 0.00 0.00 0.00 56 1012.1
20260508163504 63 235 7.0 14.0 0.00 0.00 0.00 53 1012.2
20260508163004 63 241 5.0 12.0 0.00 0.00 0.00 54 1012.2
20260508162504 63 184 5.0 14.0 0.00 0.00 0.00 53 1012.3
20260508162004 64 208 7.0 17.0 0.00 0.00 0.00 53 1012.3
20260508161504 64 224 6.0 13.0 0.00 0.00 0.00 54 1012.4
20260508161004 63 232 5.0 12.0 0.00 0.00 0.00 57 1012.5
20260508160504 63 198 7.0 13.0 0.00 0.00 0.00 54 1012.5
20260508160004 63 228 7.0 16.0 0.00 0.00 0.00 55 1012.5
20260508155504 63 212 5.0 14.0 0.00 0.00 0.00 55 1012.6
20260508154504 63 193 5.0 9.0 0.00 0.00 0.00 55 1012.6
20260508153504 63 218 5.0 10.0 0.00 0.00 0.00 56 1012.6
20260508153004 62 198 5.0 10.0 0.00 0.00 0.00 55 1012.5
20260508152004 62 192 6.0 12.0 0.00 0.00 0.00 56 1012.7
20260508151504 62 222 9.0 15.0 0.00 0.00 0.00 56 1012.8
20260508151004 61 235 9.0 16.0 0.00 0.00 0.00 55 1012.8
20260508150504 61 219 9.0 21.0 0.00 0.00 0.00 55 1012.9
20260508150004 61 227 6.0 12.0 0.00 0.00 0.00 56 1012.9
20260508145004 61 182 5.0 12.0 0.00 0.00 0.00 56 1013.0
20260508144504 60 205 3.0 12.0 0.00 0.00 0.00 58 1013.0
20260508143504 60 231 7.0 18.0 0.00 0.00 0.00 56 1013.2
20260508143004 59 223 8.0 15.0 0.00 0.00 0.00 54 1013.1
20260508142504 59 220 10.0 17.0 0.00 0.00 0.00 55 1013.1
20260508142005 59 231 4.0 12.0 0.00 0.00 0.00 56 1013.1
20260508141004 58 239 7.0 14.0 0.00 0.00 0.00 55 1013.3
20260508140504 58 220 7.0 13.0 0.00 0.00 0.00 55 1013.5
20260508140004 58 235 6.0 14.0 0.00 0.00 0.00 55 1013.4
20260508135504 58 231 5.0 12.0 0.00 0.00 0.00 57 1013.4
20260508135004 58 197 7.0 14.0 0.00 0.00 0.00 56 1013.4
20260508134504 58 227 6.0 17.0 0.00 0.00 0.00 57 1013.5
20260508133504 57 212 7.0 12.0 0.00 0.00 0.00 57 1013.4
20260508133004 57 191 3.0 9.0 0.00 0.00 0.00 59 1013.4
20260508132504 56 249 5.0 13.0 0.00 0.00 0.00 60 1013.4
20260508132004 56 225 5.0 12.0 0.00 0.00 0.00 60 1013.4
20260508131004 55 195 6.0 10.0 0.00 0.00 0.00 60 1013.4
20260508130504 55 185 2.0 8.0 0.00 0.00 0.00 62 1013.5
20260508130005 54 192 5.0 12.0 0.00 0.00 0.00 60 1013.5
20260508125504 54 216 6.0 10.0 0.00 0.00 0.00 61 1013.5
20260508125004 54 227 3.0 9.0 0.00 0.00 0.00 61 1013.5
20260508124504 54 208 6.0 12.0 0.00 0.00 0.00 60 1013.5
20260508124004 53 216 5.0 12.0 0.00 0.00 0.00 61 1013.4
20260508123504 53 233 4.0 10.0 0.00 0.00 0.00 62 1013.4
20260508123004 53 210 4.0 9.0 0.00 0.00 0.00 62 1013.3
20260508121504 52 227 5.0 12.0 0.00 0.00 0.00 62 1013.3
20260508121004 52 221 5.0 10.0 0.00 0.00 0.00 63 1013.3
20260508120504 51 218 5.0 9.0 0.00 0.00 0.00 63 1013.2
20260508120004 51 224 3.0 8.0 0.00 0.00 0.00 63 1013.2
20260508115505 51 200 2.0 12.0 0.00 0.00 0.00 63 1013.2
20260508115004 50 240 3.0 7.0 0.00 0.00 0.00 64 1013.2
20260508114504 50 188 2.0 10.0 0.00 0.00 0.00 65 1013.2
20260508114004 50 217 3.0 12.0 0.00 0.00 0.00 65 1013.2
20260508113504 50 205 3.0 7.0 0.00 0.00 0.00 65 1013.1
20260508113005 49 226 2.0 7.0 0.00 0.00 0.00 65 1013.1
20260508112505 49 222 2.0 8.0 0.00 0.00 0.00 65 1013.1
20260508111505 49 196 2.0 5.0 0.00 0.00 0.00 65 1013.1
20260508111004 49 194 2.0 5.0 0.00 0.00 0.00 65 1013.0
20260508110505 49 197 2.0 5.0 0.00 0.00 0.00 65 1013.0
20260508110005 50 210 2.0 6.0 0.00 0.00 0.00 64 1013.0
20260508105504 50 197 2.0 6.0 0.00 0.00 0.00 66 1013.0
20260508105004 50 206 2.0 3.0 0.00 0.00 0.00 65 1012.9
20260508104504 50 209 2.0 5.0 0.00 0.00 0.00 65 1012.8
20260508103504 50 198 1.0 5.0 0.00 0.00 0.00 64 1012.9
20260508103004 50 230 2.0 6.0 0.00 0.00 0.00 64 1012.9
20260508102503 50 206 2.0 5.0 0.00 0.00 0.00 64 1012.8
20260508102004 50 188 2.0 7.0 0.00 0.00 0.00 65 1012.8
20260508101005 50 195 3.0 9.0 0.00 0.00 0.00 65 1013.0
20260508100504 50 203 2.0 7.0 0.00 0.00 0.00 66 1013.0
20260508095504 50 243 3.0 8.0 0.00 0.00 0.00 66 1012.9
20260508095004 50 219 3.0 8.0 0.00 0.00 0.00 66 1012.9
20260508094504 50 191 2.0 6.0 0.00 0.00 0.00 65 1012.9
20260508094005 49 227 2.0 7.0 0.00 0.00 0.00 66 1013.0
20260508093504 49 201 3.0 9.0 0.00 0.00 0.00 65 1013.1
20260508093004 49 229 2.0 7.0 0.00 0.00 0.00 65 1013.1
20260508092504 49 232 2.0 6.0 0.00 0.00 0.00 67 1013.1
20260508092004 49 199 2.0 6.0 0.00 0.00 0.00 66 1013.1
20260508091004 49 217 1.0 5.0 0.00 0.00 0.00 67 1013.1
20260508090005 49 239 2.0 7.0 0.00 0.00 0.00 67 1013.0
20260508085504 49 237 1.0 7.0 0.00 0.00 0.00 67 1013.1
20260508085004 49 198 3.0 8.0 0.00 0.00 0.00 67 1013.0
20260508084504 49 187 2.0 6.0 0.00 0.00 0.00 68 1013.1
20260508084004 49 230 2.0 5.0 0.00 0.00 0.00 68 1013.0
20260508083504 48 183 2.0 6.0 0.00 0.00 0.00 68 1013.0
20260508083004 48 194 2.0 3.0 0.00 0.00 0.00 68 1013.0
20260508082504 48 195 2.0 6.0 0.00 0.00 0.00 68 1012.9
20260508080005 49 211 2.0 5.0 0.00 0.00 0.00 68 1013.0
20260508075504 49 210 3.0 6.0 0.00 0.00 0.00 67 1013.0
20260508075004 49 189 2.0 8.0 0.00 0.00 0.00 67 1013.0
20260508074505 49 199 3.0 9.0 0.00 0.00 0.00 67 1013.0
20260508074004 48 200 2.0 9.0 0.00 0.00 0.00 67 1013.0
20260508073504 48 208 2.0 5.0 0.00 0.00 0.00 68 1013.0
20260508072504 48 173 2.0 5.0 0.00 0.00 0.00 69 1013.0
20260508072004 48 178 1.0 3.0 0.00 0.00 0.00 68 1013.0
20260508071504 48 220 1.0 3.0 0.00 0.00 0.00 68 1013.0
20260508071005 48 213 2.0 6.0 0.00 0.00 0.00 69 1013.1
20260508070504 48 184 1.0 3.0 0.00 0.00 0.00 68 1013.2
20260508065504 48 247 2.0 6.0 0.00 0.00 0.00 67 1013.3
20260508065005 49 184 2.0 5.0 0.00 0.00 0.00 66 1013.4
20260508064504 49 212 2.0 5.0 0.00 0.00 0.00 66 1013.4
20260508064004 49 194 3.0 7.0 0.00 0.00 0.00 66 1013.4
20260508063504 48 189 2.0 3.0 0.00 0.00 0.00 67 1013.5
20260508063004 49 193 1.0 6.0 0.00 0.00 0.00 67 1013.6
20260508062005 49 173 1.0 3.0 0.00 0.00 0.00 66 1013.6
20260508061503 49 165 2.0 6.0 0.00 0.00 0.00 66 1013.5
20260508061004 49 193 2.0 6.0 0.00 0.00 0.00 67 1013.6
20260508060505 48 188 2.0 6.0 0.00 0.00 0.00 67 1013.7
20260508060004 48 187 2.0 5.0 0.00 0.00 0.00 68 1013.8
20260508055504 48 178 2.0 5.0 0.00 0.00 0.00 69 1013.9
20260508055004 48 182 1.0 3.0 0.00 0.00 0.00 69 1013.9
20260508054504 48 198 2.0 3.0 0.00 0.00 0.00 68 1013.9
20260508054004 48 185 1.0 3.0 0.00 0.00 0.00 68 1013.9
20260508053504 48 205 1.0 3.0 0.00 0.00 0.00 69 1013.9
20260508053004 48 202 2.0 6.0 0.00 0.00 0.00 68 1013.8
20260508052504 48 203 1.0 3.0 0.00 0.00 0.00 69 1013.8
20260508052004 48 202 1.0 3.0 0.00 0.00 0.00 69 1013.8
20260508051504 49 199 2.0 5.0 0.00 0.00 0.00 67 1013.8
20260508050504 49 190 1.0 3.0 0.00 0.00 0.00 66 1013.7
20260508050004 49 189 2.0 5.0 0.00 0.00 0.00 66 1013.8
20260508045504 49 180 2.0 5.0 0.00 0.00 0.00 66 1013.7
20260508045004 49 201 1.0 5.0 0.00 0.00 0.00 66 1013.7
20260508044504 49 190 2.0 5.0 0.00 0.00 0.00 65 1013.7
20260508044004 49 163 1.0 6.0 0.00 0.00 0.00 66 1013.7
20260508043504 49 201 1.0 7.0 0.00 0.00 0.00 65 1013.7
20260508043005 49 201 2.0 6.0 0.00 0.00 0.00 66 1013.7
20260508042004 49 174 2.0 6.0 0.00 0.00 0.00 66 1013.6
20260508041504 49 171 3.0 5.0 0.00 0.00 0.00 65 1013.6
20260508041004 49 151 2.0 5.0 0.00 0.00 0.00 65 1013.7
20260508040504 49 177 2.0 5.0 0.00 0.00 0.00 65 1013.7
20260508040004 49 173 2.0 5.0 0.00 0.00 0.00 64 1013.8
20260508035004 49 217 1.0 3.0 0.00 0.00 0.00 65 1013.7
20260508034504 49 189 1.0 5.0 0.00 0.00 0.00 65 1013.7